Погода в Свентохловице

Польша     50°17′52″N   18°54′21″E
темп.,
°C
ветер,
м/с
пор.,
м/с
влажн.,
%
обл.,
%
осадки,
мм/ч
давл.,
гПа
погр.,
м
1 марта, пн
пн101:00+3ссз358579 0.0 1034487
04:00+2ссз2386100 0.0 1034285
07:00+2ссз2486100 0.0 1035294
10:00+3ссз2381100 0.0 1036343
13:00+4ссз1274100 0.0 1036475
16:00+5с117161 0.0 1035613
19:00+3ссз118252 0.0 103630
22:00+2з11870 0.0 103622
2 марта, вт
вт201:00+1юз11900 0.0 103722
04:00+1юз22900 0.0 103542
07:00+1юз22880 0.0 103568
10:00+6зюз25630 0.0 1034288
13:00+10зюз34500 0.0 1034431
16:00+10з24500 0.0 1032332
19:00+7зюз22650 0.0 103334
22:00+5з12750 0.0 103422
3 марта, ср
ср301:00+4зюз11810 0.0 103422
04:00+3юз12830 0.0 103222
07:00+3юз12800 0.0 103222
10:00+8ююз13550 0.0 1030241
13:00+12ююз23400 0.0 1028489
16:00+12юз254418 0.0 1025506
19:00+8юз3115954 0.0 1025388
22:00+7юз5136543 0.0 1024484
4 марта, чт
чт401:00+6зюз4117522 0.0 1022331
04:00+5юз497843 0.0 1020267
07:00+5юз4107846 0.0 1019286
10:00+8зюз596438 0.0 1016429
13:00+11зюз475464 0.0 1014875
16:00+11зюз475695 0.0 10121093
19:00+9зюз277097 0.0 1011226
22:00+8з2684100 0.4 1010406
5 марта, пт
пт501:00+5сз4989100 6.4 1010683
04:00+4сз3784100 0.6 1010664
07:00+2с3688100 0.8 1013561
10:00+1с4788100 0.8 1016585
13:00+2с4663100 1.1 10181069
16:00+2с4644100 0.3 10201757
19:00+1ссз364581 0.3 1023834
22:000сз36520 0.0 1025400